[[{"header":{"parameterUnit":"m.s-1","parameterCategory":2,"la1":30.2991,"la2":30.254,"lo1":-89.0895,"lo2":-89.0444,"dy":0.0017,"dx":0.0017,"nx":28,"ny":28,"refTime":"2023-08-16T09:00:00:Z","depth":"0","parameterNumber":2,"parameterNumberName":"U-component_of_CURRENTS"},"data":[0,0,0,0,0,0,0,0,0,0,0,0,0,0,0,0,0,0,0,0,0,0,0,0,0,0,0,0,0,0,0,0,0,0,0,0,0,0,0,0,0,0,0,0,0,0,0,0,0,0,0,0,0,0,0,0,0,0,0.1909,0.191,0,0.1938,0.1937,0.1937,0.1848,0.1846,0.1845,0.1843,0.1898,0.1901,0.1904,0,0,0,0,0,0,0,0,0,0,0,0,0,0.1714,0.1717,0.1909,0.191,0.1911,0.1938,0.1937,0.1937,0.1849,0.1846,0.1844,0.1842,0.1897,0.1901,0.1905,0,0,0,0,0,0,0,0,0,0,0,0,0,0.1767,0.1718,0.1909,0.1878,0.1876,0.1938,0.1937,0.1937,0.1849,0.1846,0.1844,0.1841,0.1896,0.19,0.1905,0.1989,0,0,0.192,0.1922,0,0,0,0,0,0,0,0,0.1764,0.1773,0.1881,0.188,0.1878,0.1895,0.1889,0.1959,0.185,0.1849,0.1843,0.184,0.1908,0.1911,0.1909,0.1992,0.1994,0.192,0.1923,0.1925,0.1926,0,0,0,0,0,0,0,0.1761,0.1771,0.1911,0.1883,0.1881,0.1841,0.1845,0.1901,0.1887,0.1849,0.1845,0.1864,0.1905,0.1904,0.191,0.1995,0.192,0.1924,0.1927,0.1929,0.2197,0.2201,0,0,0,0,0,0,0.1784,0.1769,0.191,0.1912,0.1824,0.1848,0.1852,0.1885,0.1885,0.1885,0.1867,0.186,0.1898,0.1904,0.1912,0.205,0.1925,0.1929,0.1932,0.2193,0.2198,0.2203,0,0,0,0,0,0,0.178,0.1797,0.1909,0.1847,0.186,0.1855,0.1892,0.1887,0.1899,0.19,0.1898,0.1886,0.1896,0.1905,0.1995,0.205,0.1932,0.1936,0.2188,0.2194,0.22,0.2304,0,0,0,0,0,0,0.1774,0.1795,0.1827,0.185,0.1865,0.1967,0.1896,0.189,0.1919,0.191,0.1918,0.1918,0.1894,0.1989,0.2,0.2055,0.194,0.2182,0.2191,0.2198,0.2295,0.2313,0.2329,0,0,0,0,0,0.1767,0.1832,0.1829,0.1846,0.1909,0.1971,0.1974,0.1953,0.1923,0.1948,0.1962,0.1918,0.2046,0.1997,0.2009,0.2066,0.2178,0.2188,0.2198,0.2288,0.231,0.2328,0,0,0,0,0,0,0.1773,0.1831,0.1827,0.1908,0.1945,0.1959,0.199,0.1981,0.2009,0.2002,0.1985,0.199,0.2093,0.2082,0.2028,0.2171,0.2102,0.2115,0.2167,0.2187,0.2204,0.2222,0.1944,0,0,0,0,0,0.1793,0.1848,0.1894,0.196,0.1985,0.1993,0.2016,0.2008,0.2039,0.2044,0.2058,0.2085,0.2145,0.2165,0.2215,0.2299,0.2328,0.2344,0.2361,0.2374,0.2402,0.2504,0.2532,0.2234,0.2234,0.2234,0,0,0.1815,0.1856,0.1886,0.1963,0.1985,0.2042,0.1997,0.2052,0.2098,0.2056,0.2132,0.2162,0.219,0.2279,0.2322,0.227,0.248,0.2387,0.2398,0.2419,0.2517,0.2546,0.2572,0.2241,0.2239,0.2238,0,0,0.188,0.1925,0.1981,0.202,0.2077,0.2096,0.2124,0.2163,0.2176,0.2264,0.2253,0.2329,0.2394,0.2429,0.2454,0.2606,0.2582,0.2608,0.2687,0.2786,0.281,0.2833,0.2919,0.2948,0.2594,0.2594,0.2594,0,0.1899,0.198,0.2009,0.2069,0.2107,0.213,0.219,0.2233,0.2294,0.2331,0.2304,0.2452,0.2473,0.2596,0.2637,0.2644,0.2686,0.2597,0.2806,0.2828,0.2849,0.2932,0.2963,0.26,0.26,0.2599,0.2598,0,0.199,0.2057,0.2103,0.2181,0.2226,0.2295,0.2349,0.2408,0.2432,0.2465,0.2598,0.2645,0.2718,0.2744,0.2734,0.2894,0.2873,0.2828,0.2745,0.2885,0.2964,0.2994,0.2609,0.2607,0.2605,0.2604,0,0,0.2031,0.2142,0.2157,0.2194,0.2287,0.233,0.2435,0.2531,0.2595,0.2675,0.2768,0.2892,0.2905,0.2939,0.2948,0.3031,0.3215,0.2989,0.2991,0.306,0.3436,0.3432,0.3463,0.3194,0.32,0.3204,0.3436,0,0.2092,0.2214,0.2248,0.2354,0.2423,0.2462,0.2549,0.2632,0.2703,0.2806,0.289,0.2991,0.2982,0.3017,0.3114,0.3185,0.3298,0.3157,0.3306,0.3311,0.3276,0.35,0.3451,0.3655,0.3465,0.347,0.3473,0,0.2179,0.224,0.2355,0.2436,0.2464,0.2516,0.2633,0.2715,0.2862,0.2914,0.3036,0.3091,0.3254,0.3208,0.3443,0.3347,0.3426,0.3478,0.3486,0.3469,0.3364,0.3486,0.3716,0.3566,0.3519,0.3515,0.3512,0,0.2211,0.2319,0.2407,0.244,0.2539,0.2571,0.2621,0.2748,0.2811,0.2992,0.3046,0.324,0.3321,0.3473,0.359,0.3527,0.3832,0.3743,0.3833,0.3831,0.3818,0.3806,0.3909,0.3955,0.3954,0.3954,0.3953,0,0.2291,0.2353,0.2418,0.2462,0.2519,0.2583,0.2661,0.2743,0.2865,0.2956,0.3096,0.3204,0.3391,0.356,0.3666,0.3866,0.3906,0.3925,0.3924,0.3854,0.3843,0.3727,0.3682,0.3962,0.396,0.3959,0.3957,0,0.2322,0.2397,0.2463,0.2528,0.2545,0.2575,0.2629,0.269,0.2816,0.2941,0.2998,0.321,0.3442,0.3629,0.3884,0.3951,0.4055,0.4193,0.4099,0.4084,0.3987,0.3952,0.3973,0.3865,0.4343,0.4345,0.4346,0,0.2356,0.2405,0.2461,0.2474,0.2489,0.2533,0.2565,0.2664,0.2723,0.2941,0.2997,0.3254,0.343,0.3813,0.403,0.4284,0.4128,0.4352,0.4236,0.4051,0.4012,0.3795,0.3684,0.4266,0.4267,0.4268,0.4268,0,0.2343,0.2361,0.2383,0.2423,0.2439,0.2469,0.2514,0.2542,0.2687,0.2802,0.2979,0.314,0.3536,0.3786,0.4126,0.4281,0.4158,0.4369,0.4222,0.404,0.3774,0.3643,0.4018,0.4273,0.4273,0.4273,0.4272,0.4272,0.2273,0.227,0.2296,0.2325,0.2349,0.2375,0.238,0.2451,0.2536,0.269,0.2886,0.3105,0.3515,0.3992,0.4106,0.4271,0.4196,0.4221,0.4223,0.4037,0.3854,0.4242,0.4448,0.4449,0.4449,0.4449,0.445,0,0.2152,0.2173,0.2196,0.2214,0.2211,0.2272,0.2323,0.2337,0.2404,0.2602,0.2761,0.3153,0.3472,0.3787,0.4151,0.4121,0.3935,0.4054,0.3738,0.3656,0.4073,0.3984,0.4043,0.4043,0.4044,0.4044,0.4044,0.4044,0.2082,0.2062,0.2095,0.2063,0.2088,0.2077,0.2095,0.2158,0.2278,0.2481,0.2682,0.2885,0.3337,0.3811,0.3956,0.3932,0.3625,0.3574,0.3462,0.3755,0.3766,0.3776,0.3676,0.367,0.367,0.2882,0.2876,0.2873]},{"header":{"parameterUnit":"m.s-1","parameterCategory":2,"la1":30.2991,"la2":30.254,"lo1":-89.0895,"lo2":-89.0444,"dy":0.0017,"dx":0.0017,"nx":28,"ny":28,"refTime":"2023-08-16T09:00:00:Z","depth":"0","parameterNumber":3,"parameterNumberName":"V-component_of_CURRENTS"},"data":[0,0,0,0,0,0,0,0,0,0,0,0,0,0,0,0,0,0,0,0,0,0,0,0,0,0,0,0,0,0,0,0,0,0,0,0,0,0,0,0,0,0,0,0,0,0,0,0,0,0,0,0,0,0,0,0,0,0,0.0861,0.086,0,0.0787,0.0786,0.0784,0.0726,0.0726,0.0725,0.0725,0.0678,0.0677,0.0676,0,0,0,0,0,0,0,0,0,0,0,0,0,0.0861,0.0862,0.0861,0.086,0.086,0.0787,0.0786,0.0784,0.0726,0.0726,0.0725,0.0725,0.0679,0.0677,0.0676,0,0,0,0,0,0,0,0,0,0,0,0,0,0.0828,0.0862,0.0861,0.0824,0.082,0.0787,0.0785,0.0784,0.0726,0.0726,0.0725,0.0725,0.0679,0.0678,0.0676,0.0675,0,0,0.0672,0.0671,0,0,0,0,0,0,0,0,0.0831,0.0828,0.083,0.0827,0.0822,0.0768,0.0768,0.075,0.0726,0.0758,0.0725,0.0725,0.0713,0.0709,0.0691,0.0673,0.0671,0.0671,0.0671,0.067,0.0669,0,0,0,0,0,0,0,0.0833,0.0831,0.0828,0.083,0.0825,0.078,0.0776,0.0764,0.0737,0.0755,0.0752,0.0749,0.0711,0.0692,0.0689,0.067,0.0671,0.067,0.0669,0.0669,0.0644,0.0644,0,0,0,0,0,0,0.0854,0.0833,0.0831,0.0826,0.0829,0.0781,0.0776,0.0783,0.0736,0.073,0.0749,0.0747,0.0695,0.0691,0.0688,0.0741,0.067,0.0668,0.0668,0.0644,0.0644,0.0644,0,0,0,0,0,0,0.0855,0.0855,0.0834,0.083,0.0824,0.0783,0.0791,0.0782,0.078,0.0732,0.0725,0.0759,0.0695,0.069,0.0687,0.0737,0.0668,0.0666,0.0644,0.0644,0.0644,0.0812,0,0,0,0,0,0,0.0855,0.0856,0.0879,0.0832,0.0826,0.0851,0.0791,0.0781,0.0779,0.0775,0.0738,0.0731,0.0694,0.0689,0.0685,0.0734,0.0665,0.0643,0.0644,0.0644,0.0806,0.0818,0.0828,0,0,0,0,0,0.0856,0.0908,0.088,0.0881,0.0855,0.0853,0.0847,0.0811,0.0781,0.0802,0.0757,0.0733,0.0688,0.0689,0.0684,0.0733,0.0643,0.0644,0.0644,0.0801,0.0816,0.0828,0,0,0,0,0,0,0.0944,0.0905,0.0875,0.0918,0.0897,0.0845,0.0874,0.0829,0.0808,0.0803,0.0744,0.0736,0.0754,0.0707,0.0709,0.0719,0.0659,0.0659,0.078,0.0793,0.0804,0.0843,0.0664,0,0,0,0,0,0.0967,0.0984,0.094,0.0978,0.0978,0.0922,0.0919,0.0885,0.0853,0.0843,0.0812,0.077,0.0749,0.0743,0.0719,0.0731,0.0685,0.0751,0.0762,0.0772,0.0796,0.0745,0.0755,0.0646,0.0646,0.0646,0,0,0.1015,0.0995,0.1007,0.0995,0.0979,0.0994,0.0921,0.0932,0.0939,0.0844,0.0865,0.0819,0.0759,0.0773,0.0775,0.0745,0.078,0.0773,0.0783,0.0801,0.0747,0.0758,0.0768,0.0646,0.0646,0.0646,0,0,0.1109,0.1103,0.1138,0.1125,0.1102,0.1071,0.1081,0.1037,0.1023,0.1022,0.0952,0.0937,0.0905,0.0874,0.0851,0.0905,0.0843,0.0888,0.0982,0.0934,0.0944,0.0951,0.0925,0.0929,0.0891,0.0891,0.0891,0,0.1164,0.1183,0.1154,0.1178,0.1171,0.1115,0.1139,0.1132,0.1088,0.1085,0.1056,0.1005,0.0959,0.0967,0.0977,0.0939,0.0896,0.0948,0.0953,0.096,0.0965,0.0935,0.0938,0.0899,0.0898,0.0897,0.0897,0,0.1255,0.1273,0.1307,0.1302,0.1309,0.1323,0.1296,0.1307,0.1277,0.1247,0.1256,0.1189,0.1155,0.1137,0.1077,0.1091,0.1046,0.0981,0.0934,0.0987,0.0951,0.0951,0.0911,0.0908,0.0905,0.0903,0,0,0.134,0.1358,0.1363,0.1366,0.1356,0.1366,0.1412,0.1415,0.1443,0.1419,0.1449,0.1407,0.1364,0.1332,0.1258,0.1218,0.1217,0.1123,0.1116,0.1123,0.1124,0.1083,0.1077,0.1147,0.1147,0.1148,0.1091,0,0.1399,0.146,0.1443,0.1496,0.1523,0.1488,0.1534,0.1538,0.1536,0.1565,0.1518,0.1519,0.1441,0.1423,0.1381,0.1252,0.122,0.124,0.1047,0.1043,0.1021,0.1077,0.1058,0.1004,0.109,0.109,0.109,0,0.1473,0.1489,0.1553,0.1567,0.1577,0.1599,0.1638,0.167,0.1707,0.1707,0.1718,0.1676,0.1648,0.1555,0.142,0.1432,0.1302,0.1202,0.1195,0.1102,0.1001,0.0956,0.0999,0.0732,0.1088,0.1089,0.1089,0,0.1529,0.1562,0.1606,0.161,0.1636,0.1651,0.1666,0.1711,0.1747,0.1799,0.1826,0.1798,0.177,0.1637,0.1453,0.1426,0.1288,0.1215,0.107,0.1065,0.0985,0.0973,0.077,0.112,0.112,0.112,0.1121,0,0.1584,0.1612,0.163,0.1647,0.1685,0.17,0.1759,0.1782,0.1844,0.1903,0.1895,0.1929,0.178,0.1688,0.1511,0.131,0.1332,0.1114,0.1054,0.1042,0.1036,0.0745,0.0632,0.1118,0.1119,0.1119,0.112,0,0.1629,0.1657,0.1687,0.1704,0.1715,0.174,0.1786,0.184,0.1899,0.1979,0.1999,0.2014,0.1923,0.1767,0.155,0.1375,0.1046,0.1096,0.1113,0.1056,0.0677,0.0576,0.0394,0.0262,0.0947,0.0946,0.0945,0,0.1655,0.1689,0.171,0.1725,0.1717,0.176,0.1802,0.1861,0.192,0.2025,0.2062,0.2043,0.2043,0.1764,0.1484,0.122,0.1,0.0982,0.0926,0.0676,0.0518,0.0475,0.0374,0.0889,0.0887,0.0886,0.0885,0,0.1668,0.1681,0.1689,0.1725,0.1752,0.1804,0.1858,0.1911,0.2006,0.2081,0.2162,0.2185,0.1992,0.1761,0.1425,0.1214,0.0811,0.0948,0.0671,0.0459,0.0417,0.0254,0.0915,0.0875,0.0876,0.0877,0.0877,0.0878,0.1653,0.1656,0.1685,0.171,0.1755,0.1833,0.1877,0.1955,0.206,0.218,0.2213,0.2277,0.1989,0.1567,0.1232,0.0647,0.0706,0.0449,0.0353,0.0336,0.0193,0.0851,0.0746,0.0746,0.0746,0.0746,0.0747,0,0.1622,0.1648,0.1675,0.1716,0.176,0.18,0.1913,0.1975,0.2084,0.2218,0.23,0.2238,0.1774,0.1323,0.0601,0.013,-0.0027,-0.012,-0.0218,-0.0293,0.0262,0.0237,0.0037,0.0037,0.0037,0.0038,0.0038,0.0038,0.1612,0.1624,0.1648,0.1713,0.1751,0.1834,0.1899,0.2005,0.2125,0.2285,0.2373,0.2447,0.2156,0.0803,-0.0199,-0.0444,-0.0782,-0.0795,-0.0982,-0.0654,-0.0609,-0.0567,-0.0622,-0.0998,-0.0999,-0.15,-0.1506,-0.151]}],[{"header":{"parameterUnit":"m.s-1","parameterCategory":2,"la1":30.2991,"la2":30.254,"lo1":-89.0895,"lo2":-89.0444,"dy":0.0017,"dx":0.0017,"nx":28,"ny":28,"refTime":"2023-08-16T09:00:00:Z","depth":"2","parameterNumber":2,"parameterNumberName":"U-component_of_CURRENTS"},"data":[0,0,0,0,0,0,0,0,0,0,0,0,0,0,0,0,0,0,0,0,0,0,0,0,0,0,0,0,0,0,0,0,0,0,0,0,0,0,0,0,0,0,0,0,0,0,0,0,0,0,0,0,0,0,0,0,0,0,0.0999,0.0999,0,0.0984,0.0983,0.0983,0.0983,0.0984,0.0984,0.0985,0.094,0.0939,0.0937,0,0,0,0,0,0,0,0,0,0,0,0,0,0.0994,0.0994,0.0999,0.0999,0.0999,0.0984,0.0983,0.0983,0.0983,0.0984,0.0984,0.0985,0.0941,0.0939,0.0937,0,0,0,0,0,0,0,0,0,0,0,0,0,0.0986,0.0994,0.0999,0.0999,0.0999,0.0984,0.0983,0.0983,0.0983,0.0984,0.0984,0.0985,0.0942,0.0939,0.0937,0.0907,0,0,0.0929,0.0928,0,0,0,0,0,0,0,0,0.0987,0.0986,0.0999,0.0999,0.0999,0.0989,0.0965,0.0957,0.0983,0.0986,0.0985,0.0985,0.0955,0.0952,0.0943,0.0905,0.0903,0.0929,0.0928,0.0927,0.0926,0,0,0,0,0,0,0,0.0987,0.0987,0.099,0.0999,0.0999,0.0989,0.0989,0.0964,0.0964,0.0986,0.0987,0.0989,0.0955,0.0946,0.0942,0.0903,0.0929,0.0927,0.0926,0.0925,0.0895,0.0896,0,0,0,0,0,0,0.0996,0.0987,0.099,0.099,0.0998,0.0989,0.0988,0.0989,0.0965,0.0963,0.0989,0.099,0.095,0.0945,0.0941,0.0954,0.0927,0.0924,0.0923,0.0895,0.0896,0.0896,0,0,0,0,0,0,0.0996,0.0996,0.0991,0.0991,0.099,0.0989,0.0989,0.0988,0.0996,0.0968,0.0965,0.1,0.095,0.0944,0.0924,0.0951,0.0923,0.0921,0.0894,0.0895,0.0896,0.0949,0,0,0,0,0,0,0.0996,0.0996,0.1016,0.0991,0.099,0.0966,0.0989,0.0988,0.0997,0.0998,0.0976,0.0972,0.095,0.0928,0.0922,0.0947,0.0919,0.0893,0.0894,0.0896,0.0946,0.0952,0.0956,0,0,0,0,0,0.0996,0.0971,0.1017,0.1019,0.1012,0.0965,0.0962,0.0963,0.0997,0.0978,0.0981,0.0973,0.0933,0.0925,0.0918,0.0944,0.0892,0.0894,0.0895,0.0944,0.095,0.0956,0,0,0,0,0,0,0.0969,0.097,0.1018,0.0999,0.0996,0.0966,0.0948,0.0973,0.0963,0.0976,0.0966,0.096,0.0955,0.0938,0.0931,0.094,0.0918,0.0918,0.0957,0.0963,0.0968,0.0979,0.0917,0,0,0,0,0,0.0984,0.0965,0.098,0.0965,0.0967,0.0978,0.0972,0.0979,0.0963,0.0961,0.0957,0.0957,0.0952,0.0949,0.0928,0.0924,0.095,0.0941,0.0946,0.095,0.0955,0.1017,0.1029,0.0901,0.0901,0.0901,0,0,0.0969,0.0968,0.0962,0.096,0.0959,0.0958,0.0972,0.095,0.0966,0.0956,0.0965,0.0963,0.0953,0.095,0.0949,0.0942,0.1004,0.0952,0.0956,0.0959,0.102,0.1033,0.1044,0.0902,0.0902,0.0902,0,0,0.091,0.0934,0.0914,0.0917,0.0927,0.0932,0.0937,0.0936,0.095,0.0956,0.097,0.0987,0.0966,0.0977,0.0979,0.0999,0.1023,0.1,0.1039,0.11,0.1111,0.1121,0.1192,0.1208,0.1009,0.101,0.101,0,0.0922,0.0902,0.0896,0.089,0.0904,0.0928,0.0934,0.0938,0.0939,0.0965,0.096,0.0995,0.0983,0.1018,0.1028,0.1012,0.1054,0.1018,0.1109,0.1119,0.1129,0.1198,0.1215,0.1012,0.1012,0.1012,0.1011,0,0.0853,0.087,0.0842,0.0867,0.0871,0.0858,0.0891,0.091,0.0948,0.0975,0.1017,0.1014,0.1046,0.1051,0.1042,0.1114,0.1125,0.1105,0.1098,0.1145,0.1215,0.1232,0.1016,0.1015,0.1014,0.1014,0,0,0.0818,0.081,0.0817,0.0846,0.0871,0.0862,0.0894,0.0935,0.0987,0.1002,0.1071,0.1076,0.1109,0.1114,0.1126,0.1175,0.1284,0.1176,0.1178,0.1254,0.1441,0.1402,0.1417,0.1289,0.1291,0.1293,0.147,0,0.0799,0.0789,0.0796,0.0816,0.0822,0.0872,0.0903,0.0949,0.0996,0.1058,0.1096,0.1144,0.1125,0.1164,0.121,0.1262,0.1328,0.1239,0.1375,0.138,0.1346,0.1434,0.1301,0.1443,0.1486,0.1489,0.1491,0,0.0744,0.0757,0.077,0.0823,0.0837,0.0858,0.0945,0.0982,0.107,0.1116,0.1182,0.1215,0.1296,0.1269,0.14,0.135,0.1405,0.1439,0.1447,0.1401,0.1372,0.1397,0.1472,0.1519,0.1517,0.1515,0.1513,0,0.0705,0.074,0.0755,0.0771,0.0831,0.0867,0.0915,0.1001,0.1061,0.1167,0.1234,0.1313,0.1384,0.145,0.1523,0.148,0.1671,0.1619,0.1639,0.1638,0.1544,0.1529,0.1724,0.1723,0.1723,0.1723,0.1722,0,0.0667,0.0681,0.0742,0.0753,0.0811,0.0857,0.0937,0.1003,0.1112,0.1198,0.1269,0.1356,0.1435,0.1542,0.1582,0.168,0.173,0.1673,0.1687,0.1559,0.1544,0.1608,0.1593,0.1729,0.1728,0.1726,0.1725,0,0.0604,0.0636,0.0665,0.075,0.0783,0.0827,0.095,0.101,0.1121,0.1242,0.1285,0.1427,0.1577,0.1662,0.1796,0.1768,0.185,0.1872,0.1721,0.1712,0.1762,0.1747,0.1911,0.1912,0.1912,0.1912,0.1912,0,0.0563,0.0567,0.0664,0.0703,0.0743,0.0822,0.0883,0.1002,0.1075,0.128,0.1337,0.1524,0.1635,0.1825,0.1846,0.1938,0.1946,0.1829,0.1698,0.1787,0.1785,0.177,0.1755,0.1614,0.1612,0.161,0.1608,0,0.0511,0.0547,0.0589,0.0672,0.0736,0.0811,0.0906,0.0964,0.1116,0.123,0.1391,0.1498,0.1695,0.1734,0.1846,0.1851,0.1791,0.179,0.1967,0.1565,0.1515,0.151,0.1504,0.1592,0.1593,0.1595,0.1595,0.1596,0.0484,0.0507,0.0572,0.0648,0.072,0.0791,0.0837,0.0936,0.1052,0.1216,0.1346,0.147,0.1543,0.1643,0.1673,0.1685,0.1762,0.166,0.1663,0.1669,0.1581,0.1532,0.1597,0.1599,0.16,0.1601,0.1602,0,0.0463,0.0497,0.0552,0.064,0.0695,0.0754,0.085,0.0885,0.0987,0.1144,0.1275,0.1242,0.1333,0.1443,0.1444,0.1455,0.1406,0.1405,0.1331,0.1349,0.1365,0.1258,0.119,0.1189,0.1188,0.1187,0,0,0.0456,0.0491,0.0524,0.06,0.066,0.072,0.0762,0.0818,0.0907,0.0988,0.106,0.1217,0.1332,0.1203,0.1236,0.1227,0.1262,0.1181,0.1509,0.1435,0.1448,0.1513,0.1369,0,0,0,0,0]},{"header":{"parameterUnit":"m.s-1","parameterCategory":2,"la1":30.2991,"la2":30.254,"lo1":-89.0895,"lo2":-89.0444,"dy":0.0017,"dx":0.0017,"nx":28,"ny":28,"refTime":"2023-08-16T09:00:00:Z","depth":"2","parameterNumber":3,"parameterNumberName":"V-component_of_CURRENTS"},"data":[0,0,0,0,0,0,0,0,0,0,0,0,0,0,0,0,0,0,0,0,0,0,0,0,0,0,0,0,0,0,0,0,0,0,0,0,0,0,0,0,0,0,0,0,0,0,0,0,0,0,0,0,0,0,0,0,0,0,-0.0684,-0.0685,0,-0.081,-0.0811,-0.0813,-0.083,-0.0829,-0.0827,-0.0826,-0.0889,-0.0892,-0.0895,0,0,0,0,0,0,0,0,0,0,0,0,0,-0.0565,-0.0566,-0.0684,-0.0685,-0.0687,-0.081,-0.0811,-0.0813,-0.083,-0.0829,-0.0827,-0.0826,-0.0888,-0.0891,-0.0895,0,0,0,0,0,0,0,0,0,0,0,0,0,-0.0646,-0.0567,-0.0683,-0.071,-0.0714,-0.0809,-0.0811,-0.0813,-0.083,-0.0829,-0.0827,-0.0825,-0.0887,-0.0891,-0.0895,-0.0956,0,0,-0.0908,-0.091,0,0,0,0,0,0,0,0,-0.0641,-0.065,-0.0705,-0.0709,-0.0713,-0.0803,-0.0793,-0.0858,-0.0831,-0.0786,-0.0826,-0.0824,-0.0856,-0.0862,-0.0891,-0.0958,-0.0961,-0.0908,-0.0911,-0.0912,-0.0914,0,0,0,0,0,0,0,-0.0635,-0.0645,-0.0733,-0.0707,-0.0712,-0.0753,-0.0762,-0.0806,-0.0828,-0.079,-0.0791,-0.0806,-0.0857,-0.0887,-0.0892,-0.0962,-0.0908,-0.0912,-0.0914,-0.0916,-0.1036,-0.1037,0,0,0,0,0,0,-0.0617,-0.064,-0.0729,-0.0737,-0.0672,-0.0756,-0.0766,-0.0775,-0.0829,-0.0836,-0.0808,-0.0807,-0.088,-0.0887,-0.0894,-0.0923,-0.0912,-0.0916,-0.0919,-0.1036,-0.1037,-0.1037,0,0,0,0,0,0,-0.0614,-0.0624,-0.0724,-0.0692,-0.0707,-0.0759,-0.0771,-0.0779,-0.0782,-0.0843,-0.0848,-0.0799,-0.0879,-0.0888,-0.0928,-0.0927,-0.0918,-0.0922,-0.1035,-0.1036,-0.1037,-0.101,0,0,0,0,0,0,-0.061,-0.0622,-0.063,-0.069,-0.0708,-0.0776,-0.0773,-0.0782,-0.0796,-0.0795,-0.0838,-0.0844,-0.0879,-0.0921,-0.0932,-0.0932,-0.0925,-0.1034,-0.1035,-0.1037,-0.101,-0.101,-0.101,0,0,0,0,0,-0.0605,-0.0638,-0.063,-0.0641,-0.0715,-0.0777,-0.0791,-0.0822,-0.0797,-0.0813,-0.0838,-0.0841,-0.0936,-0.0926,-0.0938,-0.0939,-0.1033,-0.1035,-0.1037,-0.101,-0.101,-0.101,0,0,0,0,0,0,-0.0616,-0.0644,-0.0636,-0.068,-0.0715,-0.078,-0.0815,-0.0807,-0.0841,-0.0838,-0.0862,-0.0872,-0.0905,-0.093,-0.0917,-0.0979,-0.0982,-0.0986,-0.0957,-0.0958,-0.0958,-0.093,-0.0929,0,0,0,0,0,-0.0614,-0.0635,-0.0666,-0.0707,-0.0719,-0.0752,-0.0779,-0.0793,-0.083,-0.0841,-0.086,-0.0891,-0.0929,-0.0945,-0.0989,-0.1028,-0.1026,-0.1034,-0.1034,-0.1034,-0.1021,-0.103,-0.1029,-0.1043,-0.1043,-0.1043,0,0,-0.0633,-0.0654,-0.0667,-0.0709,-0.0742,-0.0765,-0.0764,-0.081,-0.0819,-0.0845,-0.0865,-0.0895,-0.094,-0.0986,-0.1001,-0.1001,-0.1029,-0.1036,-0.1035,-0.1022,-0.1032,-0.103,-0.1029,-0.1044,-0.1044,-0.1044,0,0,-0.068,-0.0694,-0.0712,-0.073,-0.0768,-0.0791,-0.0786,-0.0824,-0.0829,-0.086,-0.0875,-0.0897,-0.0955,-0.0985,-0.1008,-0.1033,-0.103,-0.1044,-0.1022,-0.1032,-0.103,-0.1028,-0.1016,-0.1013,-0.1042,-0.1042,-0.1042,0,-0.0682,-0.0711,-0.0735,-0.075,-0.0758,-0.0785,-0.079,-0.0822,-0.0862,-0.0857,-0.0862,-0.0917,-0.0954,-0.0989,-0.1002,-0.103,-0.1027,-0.1016,-0.1029,-0.1028,-0.1026,-0.1014,-0.1012,-0.1041,-0.1041,-0.1041,-0.1041,0,-0.0743,-0.0742,-0.0765,-0.0771,-0.0791,-0.0815,-0.0834,-0.0846,-0.0841,-0.0854,-0.0872,-0.0926,-0.0944,-0.0968,-0.0997,-0.1008,-0.1005,-0.1026,-0.1021,-0.1023,-0.1011,-0.1008,-0.1039,-0.104,-0.104,-0.104,0,0,-0.0754,-0.0786,-0.0781,-0.0758,-0.0787,-0.0801,-0.0822,-0.0831,-0.0812,-0.0856,-0.0828,-0.0905,-0.0905,-0.0929,-0.0962,-0.0978,-0.0974,-0.0995,-0.0996,-0.0968,-0.0974,-0.0952,-0.0948,-0.0996,-0.0995,-0.0995,-0.0965,0,-0.0763,-0.0779,-0.0793,-0.0781,-0.0773,-0.0781,-0.0785,-0.0799,-0.0809,-0.0802,-0.0844,-0.0848,-0.0901,-0.0895,-0.0925,-0.0959,-0.0969,-0.0979,-0.0989,-0.0989,-0.0958,-0.0945,-0.0927,-0.0897,-0.0963,-0.0963,-0.0962,0,-0.0787,-0.0782,-0.0773,-0.0732,-0.0726,-0.0722,-0.0694,-0.0705,-0.0721,-0.072,-0.0738,-0.0766,-0.0797,-0.0837,-0.089,-0.0891,-0.0926,-0.0957,-0.0957,-0.094,-0.0963,-0.091,-0.0891,-0.0959,-0.0959,-0.096,-0.096,0,-0.0763,-0.0749,-0.073,-0.0723,-0.0705,-0.0676,-0.0665,-0.067,-0.0645,-0.0657,-0.0626,-0.0689,-0.068,-0.0754,-0.082,-0.0851,-0.0862,-0.0916,-0.0926,-0.0924,-0.0912,-0.0909,-0.0943,-0.0943,-0.0943,-0.0943,-0.0943,0,-0.0753,-0.0721,-0.0707,-0.0686,-0.0624,-0.063,-0.0568,-0.0567,-0.0547,-0.0495,-0.0569,-0.053,-0.0656,-0.0682,-0.0776,-0.0824,-0.0825,-0.0906,-0.0914,-0.0902,-0.0899,-0.0962,-0.0965,-0.0942,-0.0942,-0.0942,-0.0943,0,-0.0719,-0.0728,-0.0673,-0.063,-0.0608,-0.0557,-0.0486,-0.0446,-0.0437,-0.0366,-0.0357,-0.0391,-0.0427,-0.0544,-0.0639,-0.0732,-0.0808,-0.0823,-0.0787,-0.0792,-0.0878,-0.088,-0.0846,-0.0845,-0.0844,-0.0844,-0.0843,0,-0.0712,-0.0687,-0.0614,-0.0564,-0.0529,-0.0461,-0.0409,-0.0388,-0.0336,-0.0267,-0.022,-0.0232,-0.0236,-0.0367,-0.0534,-0.0677,-0.0728,-0.0748,-0.0822,-0.0856,-0.0868,-0.0871,-0.0874,-0.0793,-0.0792,-0.0791,-0.079,0,-0.0653,-0.0622,-0.0571,-0.0477,-0.0404,-0.0329,-0.0251,-0.0196,-0.0153,-0.0086,0.0,0.0002,-0.0119,-0.0265,-0.0461,-0.0569,-0.0736,-0.0735,-0.0769,-0.0821,-0.0804,-0.0816,-0.0821,-0.0783,-0.0784,-0.0784,-0.0785,-0.0785,-0.0586,-0.0531,-0.0462,-0.0367,-0.0286,-0.0191,-0.0114,-0.0036,0.0064,0.018,0.0163,0.019,-0.0027,-0.0264,-0.0436,-0.062,-0.0659,-0.075,-0.0753,-0.0758,-0.0758,-0.074,-0.0706,-0.0706,-0.0706,-0.0707,-0.0707,0,-0.0502,-0.0445,-0.0356,-0.0242,-0.0142,-0.0115,0.0001,0.0071,0.0207,0.0292,0.0362,0.0208,0.0037,-0.0178,-0.0447,-0.0636,-0.0668,-0.0681,-0.0701,-0.0707,-0.0713,-0.0712,-0.0648,-0.0648,-0.0648,-0.0648,0,0,-0.0449,-0.0355,-0.0315,-0.0137,-0.0047,0.0092,0.0168,0.0258,0.0324,0.0419,0.0451,0.0403,0.01,-0.008,-0.0344,-0.0484,-0.0546,-0.0505,-0.0541,-0.0543,-0.0545,-0.0749,-0.0754,0,0,0,0,0]}],[{"header":{"parameterUnit":"m.s-1","parameterCategory":2,"la1":30.2991,"la2":30.254,"lo1":-89.0895,"lo2":-89.0444,"dy":0.0017,"dx":0.0017,"nx":28,"ny":28,"refTime":"2023-08-16T09:00:00:Z","depth":"4","parameterNumber":2,"parameterNumberName":"U-component_of_CURRENTS"},"data":[0,0,0,0,0,0,0,0,0,0,0,0,0,0,0,0,0,0,0,0,0,0,0,0,0,0,0,0,0,0,0,0,0,0,0,0,0,0,0,0,0,0,0,0,0,0,0,0,0,0,0,0,0,0,0,0,0,0,0.0527,0.0527,0,0.0561,0.0561,0.0562,0.0594,0.0594,0.0594,0.0595,0.0609,0.0609,0.0609,0,0,0,0,0,0,0,0,0,0,0,0,0,0.0521,0.052,0.0526,0.0527,0.0527,0.0561,0.0561,0.0562,0.0593,0.0594,0.0594,0.0595,0.0609,0.0609,0.0609,0,0,0,0,0,0,0,0,0,0,0,0,0,0.0536,0.052,0.0526,0.0547,0.0549,0.0561,0.0561,0.0562,0.0593,0.0594,0.0595,0.0595,0.0609,0.0609,0.0609,0.0598,0,0,0.061,0.061,0,0,0,0,0,0,0,0,0.0535,0.0536,0.0544,0.0546,0.0548,0.0573,0.0565,0.0573,0.0593,0.0577,0.0595,0.0595,0.0595,0.0596,0.0602,0.0599,0.0599,0.061,0.061,0.061,0.061,0,0,0,0,0,0,0,0.0534,0.0535,0.054,0.0544,0.0547,0.0566,0.0568,0.0567,0.0582,0.0578,0.0581,0.0584,0.0596,0.0602,0.0602,0.0599,0.061,0.061,0.061,0.061,0.0637,0.0637,0,0,0,0,0,0,0.0527,0.0534,0.0539,0.0541,0.0543,0.0565,0.0568,0.0565,0.0582,0.0586,0.0584,0.0585,0.0601,0.0602,0.0603,0.0645,0.061,0.061,0.061,0.0636,0.0637,0.0637,0,0,0,0,0,0,0.0527,0.0527,0.0538,0.0539,0.0541,0.0564,0.0561,0.0565,0.0581,0.0587,0.059,0.0596,0.0602,0.0603,0.061,0.0644,0.061,0.061,0.0635,0.0636,0.0637,0.0694,0,0,0,0,0,0,0.0526,0.0526,0.0529,0.0538,0.0541,0.0551,0.056,0.0565,0.0581,0.0584,0.0598,0.0599,0.0602,0.061,0.061,0.0643,0.061,0.0634,0.0636,0.0637,0.0691,0.0697,0.0702,0,0,0,0,0,0.0526,0.0527,0.0529,0.053,0.0542,0.0551,0.0555,0.0574,0.0581,0.0589,0.0598,0.0599,0.0619,0.061,0.061,0.0644,0.0634,0.0635,0.0637,0.0689,0.0696,0.0702,0,0,0,0,0,0,0.0533,0.0531,0.0533,0.0536,0.0545,0.0557,0.0572,0.0576,0.059,0.06,0.0599,0.0601,0.0622,0.0617,0.0608,0.0655,0.063,0.0631,0.067,0.0676,0.0681,0.0678,0.061,0,0,0,0,0,0.0532,0.0534,0.0535,0.0542,0.0546,0.0558,0.0567,0.0579,0.0589,0.0597,0.0607,0.0618,0.0627,0.0638,0.0642,0.0661,0.065,0.0685,0.069,0.0695,0.0691,0.0694,0.0699,0.0643,0.0643,0.0643,0,0,0.0541,0.054,0.0543,0.0544,0.0556,0.0564,0.0566,0.0586,0.0602,0.0594,0.0626,0.0632,0.0632,0.0661,0.0671,0.0664,0.0707,0.0697,0.0701,0.0695,0.0696,0.0702,0.0707,0.0644,0.0643,0.0643,0,0,0.0552,0.0554,0.0556,0.0563,0.0577,0.0582,0.0586,0.0604,0.0623,0.0643,0.0648,0.0665,0.0683,0.0695,0.07,0.073,0.0729,0.0746,0.078,0.0783,0.0788,0.0792,0.0796,0.08,0.0757,0.0757,0.0757,0,0.0557,0.0562,0.0562,0.0567,0.0578,0.0588,0.0599,0.0616,0.0638,0.066,0.066,0.0697,0.0697,0.073,0.0748,0.0744,0.0747,0.0759,0.079,0.0794,0.0797,0.08,0.0804,0.076,0.076,0.0759,0.0759,0,0.0569,0.0576,0.0583,0.0588,0.0599,0.0615,0.0631,0.0655,0.0677,0.0698,0.0741,0.0744,0.077,0.078,0.0774,0.081,0.0806,0.0791,0.0776,0.0806,0.0808,0.081,0.0764,0.0763,0.0762,0.0761,0,0,0.0544,0.0582,0.0579,0.0594,0.0614,0.0622,0.0656,0.0687,0.0718,0.075,0.0791,0.0813,0.0831,0.0836,0.0844,0.0849,0.0876,0.084,0.0839,0.0846,0.0894,0.0893,0.0896,0.0876,0.0877,0.0877,0.0891,0,0.0547,0.0567,0.0585,0.0608,0.062,0.0648,0.0677,0.0713,0.0749,0.0792,0.0819,0.0856,0.0851,0.0875,0.0883,0.0875,0.0884,0.0873,0.086,0.086,0.0857,0.0899,0.0879,0.0892,0.0893,0.0893,0.0894,0,0.0531,0.0553,0.0581,0.0625,0.0633,0.0654,0.0705,0.0737,0.08,0.0834,0.0884,0.0907,0.0941,0.092,0.0933,0.0933,0.092,0.0905,0.0905,0.0883,0.0864,0.0852,0.0898,0.0898,0.0897,0.0897,0.0897,0,0.0497,0.0538,0.0567,0.0581,0.0634,0.0663,0.0696,0.0756,0.0798,0.0871,0.0911,0.0952,0.0979,0.0972,0.0969,0.0955,0.0969,0.094,0.0924,0.0924,0.0893,0.0889,0.0936,0.0936,0.0936,0.0936,0.0936,0,0.0473,0.0488,0.0561,0.0571,0.0611,0.0658,0.0708,0.0751,0.083,0.0872,0.0939,0.0971,0.0993,0.1013,0.099,0.0982,0.0992,0.0937,0.0931,0.0918,0.0917,0.0896,0.0891,0.0936,0.0936,0.0936,0.0936,0,0.0418,0.0465,0.0495,0.0566,0.0593,0.0621,0.071,0.0747,0.0834,0.089,0.092,0.0999,0.1029,0.1052,0.104,0.1012,0.0995,0.0984,0.0989,0.0981,0.0937,0.0935,0.096,0.096,0.096,0.096,0.096,0,0.0395,0.0408,0.0478,0.0507,0.0543,0.0603,0.0641,0.0732,0.077,0.0887,0.09,0.0985,0.1021,0.1021,0.1039,0.1034,0.1015,0.1003,0.0951,0.095,0.0942,0.0939,0.0937,0.096,0.0961,0.0961,0.0961,0,0.0346,0.0371,0.0398,0.0459,0.0504,0.055,0.0614,0.0643,0.0738,0.082,0.0875,0.0924,0.097,0.0992,0.1024,0.1001,0.101,0.1004,0.1002,0.0953,0.0951,0.0942,0.094,0.0961,0.0961,0.0961,0.0961,0,0.0305,0.0311,0.0355,0.0408,0.0459,0.0495,0.0534,0.0591,0.0646,0.0776,0.0778,0.0875,0.0939,0.0975,0.0984,0.1001,0.0971,0.0921,0.0923,0.0923,0.0911,0.0903,0.0901,0,0,0,0,0,0.0269,0.0279,0.0313,0.0364,0.0414,0.0451,0.0515,0.0558,0.0641,0.066,0.073,0.0772,0.0844,0.0891,0.0901,0.0965,0.0968,0.0972,0.0909,0.0964,0.0963,0.0956,0,0,0,0,0,0,0.0246,0.0264,0.0288,0.0322,0.0359,0.0404,0.0445,0.0502,0.0522,0.0614,0.0654,0.0732,0.0805,0.0833,0.0887,0.0903,0.085,0.1033,0.1032,0.0964,0.0964,0.0963,0.0955,0,0,0,0,0]},{"header":{"parameterUnit":"m.s-1","parameterCategory":2,"la1":30.2991,"la2":30.254,"lo1":-89.0895,"lo2":-89.0444,"dy":0.0017,"dx":0.0017,"nx":28,"ny":28,"refTime":"2023-08-16T09:00:00:Z","depth":"4","parameterNumber":3,"parameterNumberName":"V-component_of_CURRENTS"},"data":[0,0,0,0,0,0,0,0,0,0,0,0,0,0,0,0,0,0,0,0,0,0,0,0,0,0,0,0,0,0,0,0,0,0,0,0,0,0,0,0,0,0,0,0,0,0,0,0,0,0,0,0,0,0,0,0,0,0,-0.0437,-0.0437,0,-0.0428,-0.0428,-0.0428,-0.0454,-0.0455,-0.0456,-0.0456,-0.046,-0.046,-0.0459,0,0,0,0,0,0,0,0,0,0,0,0,0,-0.0431,-0.0431,-0.0437,-0.0437,-0.0437,-0.0428,-0.0428,-0.0428,-0.0454,-0.0455,-0.0456,-0.0457,-0.0461,-0.046,-0.0459,0,0,0,0,0,0,0,0,0,0,0,0,0,-0.0428,-0.0431,-0.0437,-0.045,-0.0451,-0.0429,-0.0428,-0.0428,-0.0453,-0.0455,-0.0456,-0.0457,-0.0461,-0.046,-0.0459,-0.0425,0,0,-0.0455,-0.0455,0,0,0,0,0,0,0,0,-0.0428,-0.0428,-0.0448,-0.0449,-0.045,-0.0445,-0.0428,-0.0428,-0.0453,-0.0451,-0.0456,-0.0458,-0.0456,-0.0455,-0.0449,-0.0425,-0.0425,-0.0455,-0.0455,-0.0454,-0.0454,0,0,0,0,0,0,0,-0.0428,-0.0428,-0.0433,-0.0448,-0.0449,-0.0441,-0.0442,-0.0427,-0.0445,-0.0451,-0.0454,-0.0454,-0.0457,-0.045,-0.0449,-0.0425,-0.0455,-0.0454,-0.0454,-0.0453,-0.0475,-0.0476,0,0,0,0,0,0,-0.0433,-0.0429,-0.0433,-0.0432,-0.0444,-0.044,-0.0441,-0.0444,-0.0445,-0.0447,-0.0453,-0.0455,-0.0451,-0.045,-0.0449,-0.0497,-0.0454,-0.0453,-0.0452,-0.0474,-0.0475,-0.0477,0,0,0,0,0,0,-0.0433,-0.0433,-0.0433,-0.0431,-0.0431,-0.0439,-0.0442,-0.0443,-0.045,-0.0447,-0.0449,-0.046,-0.0452,-0.0451,-0.0449,-0.0494,-0.0453,-0.0452,-0.0472,-0.0474,-0.0476,-0.0536,0,0,0,0,0,0,-0.0433,-0.0433,-0.0438,-0.0432,-0.0431,-0.0423,-0.044,-0.0442,-0.0448,-0.0451,-0.0453,-0.0454,-0.0453,-0.0451,-0.0448,-0.0492,-0.0451,-0.0471,-0.0473,-0.0475,-0.0532,-0.054,-0.0546,0,0,0,0,0,-0.0432,-0.0424,-0.0438,-0.0439,-0.0437,-0.0423,-0.0422,-0.0431,-0.0447,-0.0443,-0.0452,-0.0455,-0.0465,-0.0449,-0.0446,-0.0491,-0.047,-0.0472,-0.0475,-0.0529,-0.0538,-0.0546,0,0,0,0,0,0,-0.0422,-0.0426,-0.0441,-0.0436,-0.0436,-0.0428,-0.0423,-0.0433,-0.0435,-0.0446,-0.0448,-0.0448,-0.0472,-0.0463,-0.0446,-0.0506,-0.0476,-0.0479,-0.0519,-0.0527,-0.0534,-0.0524,-0.045,0,0,0,0,0,-0.0423,-0.0422,-0.0425,-0.0422,-0.0422,-0.0426,-0.0424,-0.0433,-0.0433,-0.0437,-0.0443,-0.0458,-0.0477,-0.0485,-0.0488,-0.0502,-0.0478,-0.0536,-0.0543,-0.0548,-0.0539,-0.0541,-0.0547,-0.0486,-0.0486,-0.0486,0,0,-0.042,-0.0421,-0.0423,-0.0421,-0.0421,-0.0407,-0.0428,-0.0426,-0.0424,-0.0435,-0.0438,-0.0471,-0.0483,-0.0512,-0.0524,-0.0513,-0.0553,-0.0552,-0.0557,-0.0544,-0.0545,-0.0551,-0.0556,-0.0488,-0.0487,-0.0487,0,0,-0.0397,-0.0413,-0.04,-0.0395,-0.0397,-0.04,-0.0402,-0.0407,-0.0421,-0.0423,-0.0456,-0.0509,-0.0506,-0.0551,-0.0566,-0.0605,-0.0584,-0.0623,-0.0653,-0.0656,-0.0661,-0.0665,-0.0638,-0.0639,-0.0632,-0.0632,-0.0632,0,-0.0398,-0.0382,-0.0394,-0.0373,-0.0368,-0.0396,-0.0379,-0.0387,-0.0397,-0.0415,-0.0427,-0.0499,-0.0525,-0.0587,-0.0625,-0.0622,-0.0604,-0.0623,-0.0664,-0.0668,-0.067,-0.0642,-0.0642,-0.0635,-0.0635,-0.0635,-0.0634,0,-0.0359,-0.035,-0.0338,-0.0328,-0.0322,-0.0315,-0.0327,-0.0342,-0.0372,-0.0395,-0.046,-0.0515,-0.0568,-0.0609,-0.0631,-0.0696,-0.0669,-0.0668,-0.0642,-0.068,-0.0648,-0.0647,-0.064,-0.0639,-0.0638,-0.0637,0,0,-0.0359,-0.0322,-0.0321,-0.0306,-0.0304,-0.0293,-0.0298,-0.0317,-0.0331,-0.0388,-0.0418,-0.0524,-0.0592,-0.0616,-0.0684,-0.0714,-0.0745,-0.0713,-0.0711,-0.0681,-0.0727,-0.0706,-0.0703,-0.0752,-0.0752,-0.0753,-0.0695,0,-0.0333,-0.0287,-0.0279,-0.0244,-0.0222,-0.0245,-0.0238,-0.0263,-0.0305,-0.034,-0.0445,-0.0501,-0.0582,-0.0642,-0.069,-0.0724,-0.0746,-0.0758,-0.0698,-0.0695,-0.0669,-0.0703,-0.0754,-0.0694,-0.0694,-0.0693,-0.0693,0,-0.0301,-0.0274,-0.0234,-0.0201,-0.0195,-0.0185,-0.0203,-0.0203,-0.0263,-0.03,-0.04,-0.047,-0.0576,-0.062,-0.0696,-0.0699,-0.0723,-0.074,-0.0737,-0.0692,-0.0673,-0.0649,-0.0691,-0.0691,-0.0691,-0.0692,-0.0692,0,-0.0288,-0.0244,-0.0215,-0.0203,-0.017,-0.0172,-0.0172,-0.0207,-0.0214,-0.0297,-0.0318,-0.0441,-0.0496,-0.0559,-0.0647,-0.0665,-0.0679,-0.0696,-0.069,-0.0686,-0.0693,-0.069,-0.0723,-0.0723,-0.0723,-0.0723,-0.0723,0,-0.0257,-0.0231,-0.0211,-0.0188,-0.016,-0.0153,-0.015,-0.0167,-0.0201,-0.0206,-0.0318,-0.0351,-0.0484,-0.0528,-0.0603,-0.0642,-0.0645,-0.069,-0.0677,-0.0719,-0.072,-0.0692,-0.0689,-0.0721,-0.0721,-0.0722,-0.0722,0,-0.0232,-0.0219,-0.0177,-0.0152,-0.0146,-0.0131,-0.012,-0.0118,-0.0152,-0.0161,-0.019,-0.0273,-0.0333,-0.0438,-0.0512,-0.0566,-0.0613,-0.0622,-0.0635,-0.0624,-0.0622,-0.0623,-0.0598,-0.0597,-0.0596,-0.0595,-0.0594,0,-0.0206,-0.0186,-0.0154,-0.0136,-0.0127,-0.011,-0.0091,-0.0103,-0.0099,-0.0111,-0.0106,-0.0171,-0.024,-0.0306,-0.0428,-0.0531,-0.0563,-0.0567,-0.0638,-0.0622,-0.0613,-0.0615,-0.0618,-0.0593,-0.0593,-0.0592,-0.0592,0,-0.0161,-0.0163,-0.0132,-0.0104,-0.0084,-0.0052,-0.0034,-0.0022,-0.0024,-0.0042,-0.0039,-0.0113,-0.016,-0.0275,-0.0356,-0.0442,-0.0561,-0.0559,-0.0562,-0.0629,-0.0616,-0.0608,-0.0611,-0.0589,-0.0589,-0.059,-0.059,0,-0.0138,-0.0117,-0.0097,-0.0072,-0.0042,-0.0013,-0.0001,0.0019,0.0028,0.0018,0.0027,-0.0053,-0.0105,-0.0224,-0.0301,-0.0386,-0.0421,-0.045,-0.046,-0.0465,-0.047,-0.0437,-0.034,0,0,0,0,0,-0.012,-0.0102,-0.0068,-0.0039,-0.0011,-0.0004,0.0035,0.0042,0.0052,0.0069,0.0045,-0.0007,-0.0123,-0.0177,-0.0257,-0.0306,-0.0449,-0.0402,-0.0491,-0.0572,-0.0575,-0.0606,0,0,0,0,0,0,-0.0107,-0.0079,-0.0063,-0.0025,-0.0011,0.0023,0.0042,0.0053,0.0059,0.006,-0.0001,-0.0025,-0.0145,-0.0085,-0.0261,-0.0288,-0.0352,-0.0461,-0.0462,-0.057,-0.0573,-0.0576,-0.0609,0,0,0,0,0]}]]